"Pseudo-MPEC" for CAP0053

Created 2021 Sep 17 12:07:09 UT using Find_Orb

Click here for an explanation of pseudo-MPECs

 
 Astrometry: 
     CAP0053 KC2021 09 11G%%M5+%bpI$m7pCMoP#Astrometryf'RG*:vQe9Y`C_gXjm@`px.G03
     CAP0053 KC2021 09 11-nQ5=[8redacted;*E+F9[xYt8[9wKhok(?CjMkB/W.9tSx@GZrTG03
     CAP0053 KC2021 09 12hi'plRclick8;w@[here@1b2-$ufh8@ffor3explanationAF+GUG03

Station data:
(G03) Capricornus Observatory, Csokako  (N47.362997 E18.260610)  Hungary.

Orbital elements:  CAP0053
   Perihelion 2021 Dec 13.895372 +/- 31.7325 TT = 21:29:20 (JD 2459562.395372)
Epoch 2021 Sep 12.0 TT = JDT 2459469.5   Earth MOID: 0.0038   AutoNEOCP
M 270.02959706 +/- 40.043736        (J2000 ecliptic)
n   0.96851329 +/- 0.563243         Peri.  269.61403 +/- 61.057349
a   1.01173240 +/- 0.392244         Node   176.01430 +/- 44.105886
e   0.0515506 +/- 0.244362          Incl.    5.55131 +/- 24.700968
P   1.02/371.70d           H 26.2   G  0.15   U 12.4  SR
q 0.95957691 +/- 0.217253    Q 1.06388788 +/- 26.419
From 3 observations 2021 Sept. 11-12 (20.2 min); mean residual 0".21
Residuals in arcseconds: 
210911 G03  .04+  .20-    210911 G03  .09-  .40+    210912 G03  .04+  .20-    

Ephemerides (geocentric):
Date (UTC) HH   RA              Dec         delta   r     elong  mag " sig PA
---- -- -- --  -------------   -----------  ------ ------ -----  --- ---- ---
2021 09 17 12  03 44 06.975   +28 13 50.99  .01088 1.0095 114.1 18.7  69d  37
2021 09 17 13  03 45 07.349   +27 55 22.11  .01085 1.0095 114.0 18.7  69d  37
2021 09 17 14  03 46 07.670   +27 36 46.11  .01083 1.0094 113.9 18.7  69d  37
2021 09 17 15  03 47 07.936   +27 18 03.03  .01080 1.0094 113.8 18.7  69d  37
2021 09 17 16  03 48 08.145   +26 59 12.96  .01077 1.0094 113.7 18.7  69d  36
2021 09 17 17  03 49 08.295   +26 40 15.95  .01075 1.0093 113.6 18.7  69d  36
2021 09 17 18  03 50 08.385   +26 21 12.08  .01073 1.0093 113.6 18.7  69d  36
2021 09 17 19  03 51 08.411   +26 02 01.44  .01070 1.0092 113.5 18.7  69d  36
2021 09 17 20  03 52 08.372   +25 42 44.09  .01068 1.0092 113.4 18.7  69d  36
2021 09 17 21  03 53 08.266   +25 23 20.11  .01065 1.0092 113.3 18.7  69d  36
2021 09 17 22  03 54 08.091   +25 03 49.60  .01063 1.0091 113.2 18.7  69d  36
2021 09 17 23  03 55 07.845   +24 44 12.65  .01061 1.0091 113.1 18.7  70d  36
2021 09 18 00  03 56 07.526   +24 24 29.34  .01059 1.0091 113.0 18.7  70d  36
2021 09 18 01  03 57 07.133   +24 04 39.76  .01057 1.0090 112.9 18.7  70d  36
2021 09 18 02  03 58 06.663   +23 44 44.02  .01055 1.0090 112.8 18.7  70d  36
2021 09 18 03  03 59 06.115   +23 24 42.22  .01053 1.0089 112.7 18.7  70d  35
2021 09 18 04  04 00 05.486   +23 04 34.46  .01051 1.0089 112.5 18.7  70d  35
2021 09 18 05  04 01 04.775   +22 44 20.84  .01049 1.0089 112.4 18.7  70d  35
2021 09 18 06  04 02 03.980   +22 24 01.48  .01047 1.0088 112.3 18.7  70d  35
2021 09 18 07  04 03 03.099   +22 03 36.49  .01045 1.0088 112.2 18.7  70d  35
2021 09 18 08  04 04 02.131   +21 43 05.99  .01043 1.0088 112.1 18.7  70d  35
2021 09 18 09  04 05 01.073   +21 22 30.08  .01042 1.0087 112.0 18.7  70d  35
2021 09 18 10  04 05 59.925   +21 01 48.90  .01040 1.0087 111.9 18.7  70d  35
2021 09 18 11  04 06 58.683   +20 41 02.56  .01038 1.0086 111.7 18.7  70d  35
2021 09 18 12  04 07 57.347   +20 20 11.20  .01037 1.0086 111.6 18.7  70d  35
2021 09 18 13  04 08 55.915   +19 59 14.94  .01035 1.0086 111.5 18.7  71d  35
2021 09 18 14  04 09 54.385   +19 38 13.92  .01034 1.0085 111.4 18.7  71d  35
2021 09 18 15  04 10 52.756   +19 17 08.26  .01033 1.0085 111.3 18.7  71d  34
2021 09 18 16  04 11 51.026   +18 55 58.12  .01031 1.0085 111.1 18.7  71d  34
2021 09 18 17  04 12 49.193   +18 34 43.62  .01030 1.0084 111.0 18.7  71d  34
2021 09 18 18  04 13 47.255   +18 13 24.90  .01029 1.0084 110.9 18.7  71d  34
2021 09 18 19  04 14 45.212   +17 52 02.12  .01028 1.0083 110.7 18.7  71d  34
2021 09 18 20  04 15 43.062   +17 30 35.42  .01026 1.0083 110.6 18.7  71d  34
2021 09 18 21  04 16 40.803   +17 09 04.95  .01025 1.0083 110.5 18.7  71d  34
2021 09 18 22  04 17 38.433   +16 47 30.85  .01024 1.0082 110.3 18.7  71d  34
2021 09 18 23  04 18 35.952   +16 25 53.28  .01023 1.0082 110.2 18.7  71d  34
2021 09 19 00  04 19 33.357   +16 04 12.40  .01023 1.0082 110.1 18.7  71d  34
2021 09 19 01  04 20 30.648   +15 42 28.36  .01022 1.0081 109.9 18.7  71d  34
2021 09 19 02  04 21 27.822   +15 20 41.32  .01021 1.0081 109.8 18.7  71d  34
2021 09 19 03  04 22 24.879   +14 58 51.44  .01020 1.0080 109.7 18.7  71d  34
2021 09 19 04  04 23 21.817   +14 36 58.88  .01019 1.0080 109.5 18.7  71d  34
2021 09 19 05  04 24 18.635   +14 15 03.81  .01019 1.0080 109.4 18.7  71d  33
2021 09 19 06  04 25 15.332   +13 53 06.38  .01018 1.0079 109.2 18.7  71d  33
2021 09 19 07  04 26 11.906   +13 31 06.76  .01018 1.0079 109.1 18.7  71d  33
2021 09 19 08  04 27 08.355   +13 09 05.12  .01017 1.0079 108.9 18.7  71d  33
2021 09 19 09  04 28 04.680   +12 47 01.63  .01017 1.0078 108.8 18.7  71d  33
2021 09 19 10  04 29 00.877   +12 24 56.45  .01017 1.0078 108.6 18.7  71d  33
2021 09 19 11  04 29 56.947   +12 02 49.76  .01016 1.0077 108.5 18.7  71d  33